MON742 EGKK-LEMG

Flight info

Callsign MON742
Flight time N/A
Altitude 35000
Route NOVMA L620 SAM M195 MARUK N621 LELNA DCT NOVAN DCT DELOG DCT CRISA/N0457F370 N864 VULPE
Aircraft A306/H-SDE3FGHIRWY/LB1

Departure

Time 2026-05-05 08:32
Airport London Gatwick Airport (EGKK)

Arrival

Time N/A
Airport Málaga-Costa del Sol Airport (LEMG)
Time Latitude Longitude Altitude Speed Heading
2026-05-05 07:47 51.15598 -0.16775 215 ft 0 kts 168°
2026-05-05 08:17 51.15604 -0.16777 210 ft 4 kts 168°
2026-05-05 08:18 51.15630 -0.16787 218 ft 4 kts 169°
2026-05-05 08:18 51.15656 -0.16789 219 ft 4 kts 195°
2026-05-05 08:18 51.15678 -0.16771 221 ft 4 kts 242°
2026-05-05 08:18 51.15682 -0.16755 221 ft 1 kts 258°
2026-05-05 08:25 51.15681 -0.16761 210 ft 2 kts 258°
2026-05-05 08:25 51.15678 -0.16792 214 ft 4 kts 259°
2026-05-05 08:25 51.15670 -0.16854 217 ft 7 kts 258°
2026-05-05 08:25 51.15656 -0.16955 218 ft 11 kts 256°
2026-05-05 08:26 51.15637 -0.17077 211 ft 11 kts 256°
2026-05-05 08:26 51.15617 -0.17211 217 ft 14 kts 258°
2026-05-05 08:26 51.15581 -0.17332 219 ft 6 kts 200°
2026-05-05 08:26 51.15538 -0.17318 211 ft 9 kts 168°
2026-05-05 08:27 51.15457 -0.17289 219 ft 15 kts 167°
2026-05-05 08:27 51.15346 -0.17243 219 ft 18 kts 165°
2026-05-05 08:27 51.15242 -0.17272 214 ft 14 kts 239°
2026-05-05 08:27 51.15222 -0.17407 213 ft 11 kts 258°
2026-05-05 08:28 51.15207 -0.17520 213 ft 11 kts 257°
2026-05-05 08:28 51.15188 -0.17661 219 ft 14 kts 257°
2026-05-05 08:28 51.15158 -0.17860 220 ft 23 kts 256°
2026-05-05 08:28 51.15115 -0.18151 215 ft 30 kts 258°
2026-05-05 08:29 51.15073 -0.18472 217 ft 29 kts 258°
2026-05-05 08:29 51.15034 -0.18779 211 ft 28 kts 259°
2026-05-05 08:29 51.14997 -0.19064 213 ft 25 kts 255°
2026-05-05 08:30 51.14921 -0.19554 217 ft 32 kts 256°
2026-05-05 08:30 51.14874 -0.19924 217 ft 37 kts 257°
2026-05-05 08:30 51.14802 -0.20443 216 ft 35 kts 257°
2026-05-05 08:30 51.14751 -0.20808 216 ft 33 kts 258°
2026-05-05 08:31 51.14705 -0.21152 212 ft 31 kts 257°
2026-05-05 08:31 51.14659 -0.21326 221 ft 18 kts 202°
2026-05-05 08:31 51.14544 -0.21263 215 ft 25 kts 130°
2026-05-05 08:31 51.14562 -0.20882 212 ft 55 kts 76°
2026-05-05 08:32 51.14695 -0.19958 216 ft 117 kts 77°
2026-05-05 08:32 51.14890 -0.18444 419 ft 149 kts 77°
2026-05-05 08:32 51.15071 -0.16826 1200 ft 150 kts 76°
2026-05-05 08:32 51.15255 -0.15116 1752 ft 167 kts 76°
2026-05-05 08:33 51.15477 -0.13252 2233 ft 184 kts 75°
2026-05-05 08:33 51.15556 -0.12591 2416 ft 189 kts 75°
2026-05-05 08:34 51.15789 -0.10454 3053 ft 200 kts 77°
2026-05-05 08:34 51.16014 -0.08251 3860 ft 204 kts 73°
2026-05-05 08:34 51.16595 -0.06157 4534 ft 213 kts 52°
2026-05-05 08:34 51.17780 -0.04702 5137 ft 224 kts 22°
2026-05-05 08:35 51.19350 -0.04297 5770 ft 235 kts 354°
2026-05-05 08:35 51.20875 -0.05205 6667 ft 238 kts 328°
2026-05-05 08:35 51.22073 -0.07021 7674 ft 240 kts 306°
2026-05-05 08:35 51.22722 -0.09521 8517 ft 256 kts 280°
2026-05-05 08:36 51.22640 -0.12378 9076 ft 275 kts 261°
2026-05-05 08:36 51.22243 -0.15516 9897 ft 284 kts 259°
2026-05-05 08:36 51.21835 -0.18631 10672 ft 290 kts 259°
2026-05-05 08:36 51.21436 -0.21805 11466 ft 294 kts 259°
2026-05-05 08:37 51.21045 -0.25031 12248 ft 299 kts 260°
2026-05-05 08:37 51.20655 -0.28306 13014 ft 303 kts 260°
2026-05-05 08:37 51.20263 -0.31638 13778 ft 308 kts 260°
2026-05-05 08:37 51.19856 -0.35000 14487 ft 310 kts 259°
2026-05-05 08:38 51.19420 -0.38386 15173 ft 313 kts 258°
2026-05-05 08:38 51.18974 -0.41796 15853 ft 316 kts 258°
2026-05-05 08:38 51.18522 -0.45244 16496 ft 320 kts 258°
2026-05-05 08:38 51.18064 -0.48736 17155 ft 323 kts 257°
2026-05-05 08:39 51.17838 -0.50456 17484 ft 325 kts 257°